STRIX-5 (65971 NORAD) Tracking and Keplerian Element Data

This shows tracking and keplerian element data for the satellite.

Feedback or suggestion? Click here.




ElementValue
Catalog65971
NameSTRIX-5
Epoch Orbit998
Epoch Day353.87831009
Epoch Year2025
RAAN200.3319
Inclination41.926
Eccentricity0.0039776
Argument of Perigee317.2455
Mean Anonmoly42.5279
Mean Motion15.02496532
Decay Rate2.311E-05
L11 65971U 25229A 25353.87831009 .00002311 00000+0 18252-3 0 9999
L22 65971 41.9260 200.3319 0039776 317.2455 42.5279 15.02496532 9981



Live tracking and technical data element details for STRIX-5 (NORAD 65971). STRIX-5 can be tracked NOW for your location showing map with azimuth and elevation plus other details from your city location.







IsCatalogInMostPopularTable: catalog: 65971, numindb: 3
Update: records affected: 1



GetName: 65971 STRIX-5

Hit Count: updated at: Mon, 20 Apr 2026 09:24:54 GMT